EW3700 Weather Reports


time (UTC)temp
C
wind
direction
speed
KPH
gust
KPH
rain 1hr
cm
rain 24hr
cm
rain mn
cm
humidity
%
barometer
mb
20260504081017 12 225 1.6 8.0 0.00 0.00 0.00 47 997.0
20260504050017 12 0.0 3.2 0.00 0.00 0.00 46 1000.5
20260504045016 12 0.0 1.6 0.00 0.00 0.00 46 1000.8
20260504044016 12 0.0 1.6 0.00 0.00 0.00 46 1000.9
20260504043036 12 0.0 0.0 0.00 0.00 0.00 47 1001.0
20260504042016 12 0.0 0.0 0.00 0.00 0.00 47 1001.1
20260504041018 12 0.0 0.0 0.00 0.00 0.00 47 1001.3
20260504040019 12 0.0 0.0 0.00 0.00 0.00 48 1001.5
20260504035017 12 0.0 0.0 0.00 0.00 0.00 48 1001.8
20260504034018 13 0.0 0.0 0.00 0.00 0.00 46 1001.9
20260504033018 13 0.0 0.0 0.00 0.00 0.00 44 1002.1
20260504032018 13 0.0 0.0 0.00 0.00 0.00 43 1002.3
20260504031037 14 0.0 0.0 0.00 0.00 0.00 41 1002.3
20260504030018 15 0.0 0.0 0.00 0.00 0.00 39 1002.5
20260504025017 15 0.0 0.0 0.00 0.00 0.00 38 1002.5
20260504024017 15 0.0 0.0 0.00 0.00 0.00 37 1002.5
20260504023017 16 0.0 0.0 0.00 0.00 0.00 35 1002.6
20260504022037 16 0.0 0.0 0.00 0.00 0.00 34 1002.6
20260504021037 17 0.0 0.0 0.00 0.00 0.00 33 1002.8
20260504020017 17 0.0 1.6 0.00 0.00 0.00 33 1002.7
20260504015018 17 0.0 3.2 0.00 0.00 0.00 32 1002.7
20260504014017 17 0.0 4.8 0.00 0.00 0.00 31 1002.7
20260504013017 18 0.0 1.6 0.00 0.00 0.00 30 1002.8
20260504012017 18 0.0 4.8 0.00 0.00 0.00 29 1002.9
20260504011017 19 270 1.6 4.8 0.00 0.00 0.00 28 1003.0
20260504010017 19 270 1.6 12.9 0.00 0.00 0.00 28 1002.9
20260504005017 20 270 1.6 6.4 0.00 0.00 0.00 27 1003.0
20260504004017 20 270 4.8 12.9 0.00 0.00 0.00 26 1003.0
20260504003017 20 270 1.6 9.7 0.00 0.00 0.00 27 1003.0
20260504002017 20 270 1.6 6.4 0.00 0.00 0.00 26 1003.0
20260504001017 20 270 3.2 11.3 0.00 0.00 0.00 25 1003.0
20260504000017 21 270 4.8 14.5 0.00 0.00 0.00 24 1003.1
20260503235017 21 270 6.4 14.5 0.00 0.00 0.00 25 1003.2
20260503234017 21 270 4.8 12.9 0.00 0.00 0.00 24 1003.2
20260503233017 21 270 6.4 17.7 0.00 0.00 0.00 24 1003.2
20260503232017 21 270 6.4 19.3 0.00 0.00 0.00 24 1003.4
20260503231037 21 270 6.4 17.7 0.00 0.00 0.00 24 1003.5
20260503230017 21 293 4.8 16.1 0.00 0.00 0.00 24 1003.7
20260503225017 21 270 8.0 19.3 0.00 0.00 0.00 23 1003.8
20260503223037 21 293 8.0 14.5 0.00 0.00 0.00 23 1003.9
20260503222017 21 270 6.4 16.1 0.00 0.00 0.00 23 1003.9
20260503221017 21 315 8.0 16.1 0.00 0.00 0.00 24 1003.9
20260503220017 21 0 8.0 19.3 0.00 0.00 0.00 23 1004.0
20260503215037 21 293 6.4 14.5 0.00 0.00 0.00 24 1004.1
20260503214017 21 270 9.7 22.5 0.00 0.00 0.00 23 1004.3
20260503213017 21 270 4.8 19.3 0.00 0.00 0.00 26 1004.2
20260503212017 21 315 8.0 16.1 0.00 0.00 0.00 25 1004.3
20260503211037 21 270 8.0 20.9 0.00 0.00 0.00 26 1004.4
20260503210017 21 293 8.0 25.7 0.00 0.00 0.00 26 1004.6
20260503205017 21 270 6.4 20.9 0.00 0.00 0.00 28 1004.6
20260503204017 21 270 6.4 16.1 0.00 0.00 0.00 27 1004.6
20260503203017 21 270 6.4 16.1 0.00 0.00 0.00 29 1004.8
20260503202017 21 315 6.4 16.1 0.00 0.00 0.00 28 1004.8
20260503201017 21 338 3.2 12.9 0.00 0.00 0.00 28 1004.9
20260503200017 20 315 11.3 20.9 0.00 0.00 0.00 26 1005.1
20260503195017 20 270 6.4 20.9 0.00 0.00 0.00 26 1005.1
20260503194017 20 338 6.4 17.7 0.00 0.00 0.00 27 1005.2
20260503193017 20 270 6.4 14.5 0.00 0.00 0.00 28 1005.3
20260503192017 20 293 4.8 14.5 0.00 0.00 0.00 28 1005.2
20260503191016 20 293 8.0 17.7 0.00 0.00 0.00 27 1005.4
20260503190016 20 270 6.4 16.1 0.00 0.00 0.00 28 1005.3
20260503185016 20 270 11.3 19.3 0.00 0.00 0.00 29 1005.5
20260503184017 20 315 6.4 19.3 0.00 0.00 0.00 29 1005.4
20260503183017 20 338 9.7 24.1 0.00 0.00 0.00 29 1005.5
20260503182018 20 315 8.0 16.1 0.00 0.00 0.00 30 1005.6
20260503181016 20 293 6.4 16.1 0.00 0.00 0.00 35 1005.5
20260503180016 20 270 6.4 19.3 0.00 0.00 0.00 35 1005.7
20260503175016 20 293 8.0 22.5 0.00 0.00 0.00 35 1005.8
20260503174017 19 270 6.4 19.3 0.00 0.00 0.00 36 1005.7
20260503173016 19 315 6.4 20.9 0.00 0.00 0.00 37 1005.9
20260503172016 19 338 9.7 17.7 0.00 0.00 0.00 37 1005.9
20260503171016 19 270 8.0 20.9 0.00 0.00 0.00 38 1005.8
20260503131016 13 315 6.4 16.1 0.00 0.00 0.00 52 1004.7